Theta_e
296 296 297 297 297 298 296 297 297 296 296 297 297 298 298 298 298 300 300 298 301 303 303 303 305 307 307 307 311 311 312 315 318 320 320 320 321 322 322 323 324 325 327 326 327 328 329 322 324 323 327 326 323 323
296 296 296 296 296 298 296 296 297 296 296 297 298 297 298 298 298 298 300 298 298 300 302 300 301 302 303 306 308 308 311 312 313 321 321 321 321 321 322 322 323 326 325 326 325 325 324 322 323 323 322 324 322 323
294 296 296 295 295 298 297 296 297 297 295 295 295 297 297 298 298 298 299 298 299 300 300 300 302 301 299 300 301 304 306 308 313 309 316 321 323 322 323 322 321 323 323 325 325 324 323 322 322 322 321 321 321 321
293 294 296 296 296 296 298 296 297 297 296 295 295 297 297 297 298 298 299 298 299 299 301 302 300 302 301 301 300 301 303 307 309 309 309 317 320 320 321 321 321 321 323 323 323 322 322 321 321 321 321 321 320 319
295 293 293 294 296 296 296 297 296 296 296 296 295 295 297 297 297 297 298 298 298 299 301 300 300 301 301 300 301 303 303 304 305 307 311 315 314 318 319 320 321 319 320 322 323 322 322 321 321 320 320 319 319 318
295 294 293 293 294 296 296 296 296 296 296 296 296 295 295 296 297 299 299 298 297 298 298 302 301 301 302 303 302 301 305 306 306 307 309 310 313 316 318 319 317 318 318 319 321 321 322 320 319 319 319 319 318 318
294 294 295 294 293 294 295 297 297 297 298 297 297 296 295 295 298 299 299 298 297 298 300 300 302 302 302 305 305 302 302 304 305 307 308 309 311 312 316 317 317 317 318 318 318 320 321 320 318 316 318 318 317 316
294 295 295 295 294 293 293 294 295 296 296 297 297 296 295 295 296 298 299 297 297 299 299 301 302 302 303 307 307 305 304 303 304 305 307 309 309 311 314 314 314 315 317 318 317 320 322 320 317 317 317 318 317 317
294 294 294 294 294 295 293 293 293 294 294 295 297 296 297 298 298 298 296 298 298 299 299 300 303 303 302 304 305 306 306 307 304 307 307 309 311 312 312 312 313 314 314 316 316 318 318 319 318 318 316 318 317 316
293 293 294 293 294 295 295 294 293 293 295 296 296 298 298 297 296 297 298 298 298 298 299 299 300 302 300 301 302 306 306 310 309 308 306 309 309 309 310 312 312 312 314 315 315 317 317 315 315 317 317 317 317 316
292 293 294 295 295 294 295 295 293 294 296 296 298 298 298 295 298 297 299 299 299 300 298 298 299 301 301 303 303 302 307 306 310 310 310 311 311 310 309 310 311 312 313 314 314 316 318 317 317 318 316 317 317 316
294 293 294 294 295 295 295 295 293 294 297 297 297 296 295 297 298 298 300 299 299 300 300 301 301 301 301 301 302 303 306 307 309 306 312 311 311 310 310 311 311 311 312 313 313 315 315 316 317 317 318 317 317 316
294 294 294 294 295 294 295 295 294 295 296 295 296 296 297 297 298 299 299 300 301 300 300 301 302 301 300 299 303 304 305 307 307 309 313 311 313 312 312 312 312 312 312 312 312 313 314 316 318 317 317 317 316 315
294 294 294 294 294 295 296 295 294 295 296 297 296 296 298 298 299 300 300 301 301 301 301 301 300 301 300 302 303 304 305 307 308 308 311 314 313 313 313 314 312 312 312 312 312 313 315 317 317 317 317 316 315 314
294 294 294 295 295 295 296 295 294 295 296 296 296 297 298 298 299 300 300 300 301 300 299 299 299 300 303 304 305 305 306 308 307 308 309 311 311 312 313 315 314 312 313 313 313 314 315 316 316 316 315 314 313 312
295 295 295 295 295 295 295 294 296 296 296 296 296 298 298 299 300 300 300 301 301 301 300 300 302 304 305 304 307 305 306 308 311 310 310 311 310 310 313 315 313 313 313 314 314 314 315 315 315 314 313 312 311 310
295 295 295 295 295 295 294 294 295 295 296 296 297 297 298 299 299 300 300 300 300 300 303 301 304 304 304 307 306 306 308 309 307 307 308 307 308 310 313 314 314 314 315 315 315 314 314 313 311 311 309 309 309 309
295 295 295 295 295 294 294 295 295 296 296 296 297 298 298 298 299 299 300 300 300 301 300 302 299 304 307 309 307 307 306 305 304 305 304 306 310 311 312 314 314 314 314 314 313 312 310 310 309 309 308 308 307 307
294 295 295 295 294 295 296 295 296 297 297 297 297 297 297 298 299 299 299 300 299 299 299 299 303 306 305 303 303 303 303 303 302 303 306 309 311 311 312 313 313 313 313 312 311 311 310 309 308 307 307 307 307 307
296 296 295 294 295 296 296 297 296 297 298 298 298 298 299 299 299 299 299 301 301 301 301 304 304 301 300 299 299 299 301 303 303 305 309 309 311 312 312 312 311 310 310 310 309 308 308 308 308 308 308 308 307 307
295 295 295 295 295 296 297 297 297 296 298 298 299 299 299 299 299 300 300 301 302 302 302 300 301 299 299 302 304 305 306 306 307 308 308 307 309 311 310 310 310 310 308 307 307 307 307 307 308 308 308 308 308 308
295 295 295 295 296 296 296 297 298 298 298 299 299 299 299 299 299 301 301 302 302 301 299 299 299 299 301 303 305 305 307 307 306 307 304 308 308 309 309 308 307 307 307 307 307 307 308 308 308 309 309 309 309 308
295 294 295 295 296 296 297 297 298 298 299 299 300 300 300 300 301 301 302 301 299 298 298 299 300 300 302 303 302 303 306 307 307 307 307 307 307 307 308 308 307 307 307 308 308 309 309 309 309 309 310 310 309 308
295 295 295 295 296 297 296 297 296 298 298 299 300 300 300 300 300 302 302 299 298 298 299 300 300 301 303 304 303 303 303 305 306 306 307 307 306 307 306 308 309 309 309 309 309 309 309 309 309 309 309 309 308 308
296 296 296 297 296 296 299 299 298 299 299 299 300 300 300 299 301 301 299 297 297 297 298 300 300 301 302 303 305 306 305 304 307 306 307 307 306 306 307 307 307 307 307 308 308 309 309 308 309 309 309 309 309 309
297 297 296 299 299 299 300 301 300 300 301 300 301 300 299 301 301 298 298 296 296 296 297 299 300 301 302 302 302 303 307 307 306 306 306 306 306 307 307 308 309 309 309 309 309 309 309 309 309 309 310 309 309 309
298 300 298 298 298 298 299 299 300 301 302 302 301 302 302 302 300 297 296 296 296 296 297 298 301 301 302 302 304 306 307 308 308 308 308 309 309 309 307 308 309 308 309 309 309 309 309 309 309 309 309 309 308 308
297 297 300 299 299 300 300 300 301 301 301 299 301 301 298 298 297 295 295 295 296 296 296 298 300 302 302 301 303 306 307 306 306 308 308 308 307 307 306 305 305 305 305 305 306 308 308 308 308 309 308 308 308 308
300 300 300 300 300 299 299 299 299 298 298 299 299 298 296 294 294 294 295 295 296 296 297 298 299 300 301 302 303 305 306 307 306 306 306 306 306 306 307 307 306 305 305 302 302 302 303 306 307 307 308 308 307 306
301 301 300 299 299 299 297 298 297 297 297 297 296 295 295 294 294 295 296 296 296 296 297 298 299 300 301 302 303 303 303 304 306 306 306 306 306 305 305 306 306 305 305 305 305 304 304 304 304 304 305 305 305 306
301 301 300 300 298 297 297 298 298 298 298 298 298 297 297 296 295 295 297 297 296 296 296 297 299 300 300 301 303 304 304 302 302 302 302 304 305 304 303 303 303 303 304 305 305 305 305 304 304 304 304 303 304 305
302 301 301 300 300 299 298 299 298 298 298 298 298 298 298 297 295 294 295 296 297 297 297 298 298 298 299 299 299 300 300 300 302 302 303 303 303 302 302 301 301 301 301 302 303 304 304 304 304 303 303 301 302 303
303 303 301 300 299 300 300 299 299 299 298 297 296 296 296 296 294 293 294 295 296 297 298 298 298 298 298 298 299 300 300 300 300 302 303 302 302 301 300 300 300 300 300 299 300 300 301 302 302 302 301 301 300 302
Wind_Speed
9 9 11 11 9 6 6 5 5 3 2 1 1 2 2 0 1 4 1 1 2 4 7 5 4 6 7 7 6 6 4 6 6 10 10 6 7 8 7 6 4 5 4 3 5 6 10 6 5 8 5 2 14 16
9 8 7 9 11 7 5 6 4 2 1 1 2 2 1 3 3 2 1 3 4 4 5 6 7 9 12 6 4 3 4 2 5 4 3 4 6 6 9 7 6 5 5 4 7 5 4 3 6 5 8 6 10 19
8 9 6 6 9 7 6 5 4 2 1 2 2 1 2 2 3 3 2 4 5 5 9 5 2 4 16 18 12 6 5 3 2 2 4 3 7 4 7 9 5 7 8 5 5 8 10 9 3 6 5 4 11 19
6 7 8 7 6 11 7 5 4 3 0 2 2 3 1 2 2 3 3 4 4 5 5 1 1 2 3 6 12 21 12 3 2 4 2 3 4 5 4 2 6 3 8 5 9 9 7 10 9 14 12 16 19 21
6 5 6 7 7 7 11 8 5 4 2 1 2 3 2 1 3 3 4 3 2 2 5 7 12 1 3 10 15 12 15 16 13 9 6 4 6 4 6 5 8 10 8 7 6 9 3 2 8 9 15 21 23 23
6 6 4 4 6 7 9 10 7 5 3 1 1 2 2 2 2 2 1 4 4 1 3 3 5 2 1 3 8 16 12 11 14 11 11 13 11 5 5 8 15 12 8 8 10 1 1 5 8 10 18 21 20 21
6 6 5 5 4 4 9 9 8 7 5 4 3 3 4 4 0 2 2 2 1 2 4 5 3 1 5 3 3 8 14 13 12 16 16 16 15 16 10 11 10 4 6 2 2 4 5 10 6 6 11 19 20 20
9 8 8 7 6 4 5 7 9 10 8 5 3 4 4 3 1 1 1 4 3 3 3 3 2 3 5 1 3 4 7 14 11 17 13 15 18 19 10 18 26 19 10 3 6 4 5 20 25 11 8 19 22 22
12 11 10 8 8 6 5 5 6 6 6 6 3 3 3 1 2 2 3 1 3 3 3 3 4 3 4 1 3 1 5 6 10 11 19 11 12 12 9 18 16 20 23 9 3 6 8 23 31 17 12 17 18 20
13 12 11 9 8 8 6 5 5 5 5 4 2 1 1 2 4 3 1 1 3 4 4 5 7 6 7 6 4 3 4 4 4 10 14 14 16 26 26 9 16 18 17 17 6 17 19 20 22 21 21 18 17 20
14 14 13 12 11 10 9 7 6 8 7 4 3 2 2 4 1 2 3 4 3 4 7 7 8 5 2 5 5 4 1 2 4 4 6 8 14 20 30 30 22 18 16 21 22 18 24 26 24 18 17 20 19 20
16 15 15 14 13 11 11 10 9 11 6 6 4 3 2 2 2 3 3 3 4 3 6 4 1 3 5 4 6 5 3 3 5 11 4 6 9 13 22 31 35 30 18 16 19 24 23 19 23 26 25 22 21 20
15 16 17 17 15 14 13 12 11 12 9 7 2 2 3 4 4 4 6 4 4 5 4 3 4 3 4 6 7 4 6 6 1 2 4 6 2 1 12 20 26 29 28 25 18 15 15 16 19 25 26 23 23 21
13 14 14 14 14 14 15 14 13 16 7 4 5 4 4 4 5 4 3 2 2 6 10 7 5 4 5 3 5 4 5 3 4 2 4 6 8 12 12 11 13 19 22 26 22 15 17 21 23 22 22 23 23 21
11 12 12 13 15 15 14 16 16 18 5 4 4 4 6 6 3 3 3 5 5 6 8 3 5 5 4 4 4 5 4 7 7 8 3 9 16 19 16 11 13 17 20 24 21 21 23 25 27 25 23 22 21 19
11 13 13 13 15 14 18 18 22 20 5 4 5 5 5 5 7 7 5 5 5 4 5 6 3 3 6 4 5 7 4 5 2 4 15 15 17 19 15 10 13 17 23 24 22 25 27 29 30 29 25 21 19 18
11 6 12 12 12 18 18 18 13 5 5 4 6 9 8 5 5 3 4 8 5 5 2 3 4 5 3 4 5 4 4 4 13 19 16 17 21 15 6 11 17 23 24 26 27 28 30 30 30 28 25 21 20 19
6 10 12 19 21 18 16 9 4 4 5 8 5 3 6 6 6 5 6 5 5 3 3 3 4 3 3 4 3 4 10 14 18 20 16 23 12 5 11 18 23 26 29 31 32 33 32 31 28 26 25 24 22 20
11 14 16 18 19 8 4 7 3 3 6 3 5 5 5 6 7 8 7 5 3 8 5 3 4 2 3 7 15 20 19 15 21 22 20 5 8 16 21 24 27 31 33 33 32 30 29 26 27 25 25 22 21 19
16 15 15 18 13 2 3 3 4 3 3 1 4 5 4 2 2 3 4 2 5 8 2 2 3 7 12 26 23 24 22 22 21 13 9 13 17 23 26 29 33 34 32 29 29 31 33 28 24 23 21 20 19 17
16 17 19 14 7 1 1 3 3 3 3 4 2 3 1 2 4 2 1 4 4 2 4 7 17 24 25 18 13 15 15 13 4 9 19 20 22 25 30 31 28 27 28 28 28 29 28 27 25 24 22 19 17 15
11 10 9 10 1 1 2 4 2 2 3 2 3 2 2 2 2 1 2 3 3 5 7 13 22 27 20 20 13 9 7 11 11 18 22 28 31 31 29 28 29 29 28 29 30 27 25 23 21 20 18 16 15 13
6 5 2 3 3 2 2 4 4 4 3 2 1 2 2 1 1 2 1 4 4 7 10 15 23 19 14 14 20 24 24 20 19 25 27 30 31 28 24 25 27 28 27 24 22 21 20 19 19 16 15 14 13 13
3 4 4 5 7 3 4 4 4 2 2 3 2 1 1 1 3 2 3 3 6 8 11 16 20 20 19 19 18 15 16 16 21 23 27 29 28 18 21 21 21 20 20 19 18 17 16 15 14 13 13 13 13 13
3 3 3 4 6 4 4 5 4 4 3 4 2 2 2 2 1 3 1 3 7 7 9 11 14 15 20 13 14 17 17 16 22 23 17 22 22 19 17 16 14 12 12 12 13 13 13 11 12 12 13 14 16 15
3 3 4 2 3 3 2 5 4 4 3 2 3 3 3 3 2 2 1 2 4 5 5 7 7 11 16 15 15 16 15 13 18 21 20 21 15 13 15 15 15 14 12 11 12 14 15 13 13 13 13 15 16 15
2 1 3 3 3 3 2 4 5 2 3 3 3 4 4 2 3 2 1 1 1 3 4 2 6 2 9 12 12 15 13 15 16 16 14 14 14 13 12 11 12 13 11 11 10 10 10 10 10 10 10 12 13 12
2 3 3 5 4 6 3 3 3 3 3 3 1 3 2 3 2 1 4 7 6 4 1 5 8 5 3 7 9 8 10 14 15 15 17 17 16 15 14 13 11 9 8 7 6 5 5 6 6 8 9 9 11 11
4 6 3 10 5 5 7 5 5 5 5 0 2 3 3 2 2 3 3 3 4 5 5 4 5 6 3 4 5 6 7 9 10 10 11 10 9 9 7 7 6 5 4 0 2 4 6 4 5 6 7 8 10 11
7 7 6 8 5 5 6 6 7 8 13 14 13 12 13 15 11 4 2 3 4 7 7 5 6 6 4 3 5 5 6 7 8 6 7 7 6 6 5 4 3 2 3 3 2 1 1 1 2 4 5 7 10 12
4 6 10 7 4 9 12 10 10 11 10 11 10 11 7 3 12 13 8 7 5 5 7 8 8 6 5 3 4 5 5 6 6 6 6 6 5 5 5 5 4 3 1 2 3 4 4 3 3 4 4 6 8 11
2 3 4 3 4 4 3 4 6 7 7 8 8 6 4 4 6 12 13 10 10 10 10 10 8 8 5 3 2 4 4 3 4 6 6 6 6 5 4 4 5 7 4 2 4 6 7 8 8 7 6 6 8 11
3 3 6 5 4 3 3 3 3 5 8 7 9 8 7 4 4 9 10 8 9 10 9 8 8 8 6 4 3 3 3 3 4 6 8 8 6 5 2 2 4 7 8 6 4 3 5 8 10 12 11 10 10 14
Wind_Direction
256 256 253 237 247 239 239 246 279 326 23 38 27 30 50 294 299 77 295 231 164 263 269 255 243 248 239 246 262 74 224 202 223 237 233 209 232 207 252 232 248 244 219 217 233 221 236 4 197 198 357 290 154 163
268 269 265 239 234 237 238 235 263 297 27 99 65 52 68 56 47 87 7 327 295 252 268 252 244 246 242 257 286 236 345 356 358 283 262 280 210 198 238 240 180 231 226 189 208 228 283 333 310 300 27 19 186 163
259 248 255 241 226 228 222 216 223 223 66 63 68 107 67 77 52 69 352 340 336 300 291 263 260 251 238 238 230 254 236 248 177 33 307 281 250 297 230 235 236 213 195 235 214 229 231 246 270 297 238 277 180 151
269 251 243 244 237 223 214 209 214 212 175 38 62 60 76 58 59 40 354 317 353 309 282 116 2 206 267 228 230 226 243 282 272 267 14 294 275 336 267 325 257 21 172 247 255 261 205 220 222 222 197 197 158 145
280 275 240 227 225 230 218 215 207 197 194 60 42 48 86 353 10 2 338 337 297 301 312 295 304 194 316 231 227 226 227 233 245 249 225 213 276 267 247 274 251 227 255 260 273 353 159 292 187 173 164 157 151 139
256 258 257 227 221 216 208 208 204 204 210 238 337 4 355 335 3 5 267 20 50 23 325 298 327 297 354 293 227 215 216 221 227 230 245 247 232 254 248 250 255 265 255 281 271 0 87 127 103 148 160 154 146 140
239 243 246 253 225 211 200 206 215 222 227 235 275 306 317 323 298 255 7 245 13 345 313 298 284 183 310 287 201 203 209 219 229 231 239 249 233 214 257 255 235 224 200 236 309 179 165 166 123 121 161 149 143 137
231 237 240 236 234 218 207 216 227 234 242 246 265 304 318 327 331 299 253 261 272 287 286 289 298 237 359 239 180 192 201 206 224 237 243 232 238 236 249 242 245 249 267 225 314 276 237 172 173 189 156 155 147 143
228 228 232 233 218 216 218 217 221 227 227 225 252 299 318 153 182 129 199 309 185 221 280 277 296 19 359 312 289 229 239 224 229 221 232 241 230 228 223 234 232 231 225 212 352 129 114 157 157 172 182 172 156 148
230 226 223 220 215 209 216 213 211 205 198 202 204 210 184 181 190 194 183 186 212 208 234 253 266 270 331 309 275 232 198 251 239 223 229 225 243 244 239 245 234 230 216 177 195 160 137 135 160 185 203 179 178 159
228 227 224 219 215 211 209 212 203 185 189 178 182 188 185 193 160 165 214 225 190 215 199 225 235 294 286 288 283 255 275 281 265 199 228 232 234 235 235 235 234 231 215 201 197 221 204 187 191 192 195 188 177 161
226 223 224 227 225 216 212 207 200 189 189 179 164 157 158 201 192 219 205 178 216 256 164 237 96 262 280 262 249 220 223 247 251 348 249 243 243 229 215 219 222 222 211 198 204 216 218 214 215 210 191 182 169 156
229 226 224 222 220 217 209 204 197 190 183 157 148 161 196 182 225 222 190 195 211 180 182 204 274 224 234 233 247 243 216 228 307 220 247 247 50 231 240 225 225 224 224 225 219 218 210 198 177 175 174 168 158 148
222 218 216 214 212 203 199 197 190 184 173 175 167 201 234 183 235 210 265 12 352 291 294 298 295 243 219 231 245 241 254 247 216 219 264 328 360 320 298 259 237 215 212 208 203 196 179 165 160 163 164 155 148 145
205 202 200 196 189 193 195 183 182 185 170 184 198 228 213 236 230 231 259 289 307 312 308 233 225 237 219 241 228 230 245 230 217 240 273 321 316 314 301 270 231 211 195 190 185 172 162 152 148 146 148 143 143 141
201 187 179 177 184 187 171 168 182 197 182 212 227 244 215 240 239 222 257 287 295 277 253 220 239 231 225 237 221 212 245 243 57 348 313 313 313 305 288 251 205 186 176 170 164 160 153 145 142 139 136 133 134 135
147 156 172 176 180 166 163 171 181 171 196 215 228 233 252 280 289 291 259 298 312 297 272 249 224 228 296 221 223 223 253 348 332 317 301 312 308 290 245 176 164 157 153 145 145 145 141 137 133 131 129 128 126 127
141 156 152 160 150 149 165 172 141 196 230 231 246 212 216 250 272 283 288 295 294 268 258 248 292 240 254 287 269 10 316 310 316 323 317 299 283 208 154 148 146 141 135 135 138 137 133 129 128 128 128 127 123 123
147 162 162 159 149 128 135 170 190 241 233 248 243 240 244 257 254 259 282 288 224 288 255 235 243 259 282 292 305 299 299 299 305 320 299 211 147 140 134 134 132 130 130 132 133 130 128 129 129 131 129 128 127 128
130 125 155 166 155 126 126 159 188 253 254 150 222 221 233 264 288 271 279 193 302 313 280 296 302 283 292 298 292 282 288 295 306 317 114 126 118 126 128 128 126 124 122 122 122 125 123 121 127 127 127 132 133 135
116 148 150 152 173 144 186 179 199 234 268 243 178 237 231 205 253 271 287 249 279 334 355 313 311 322 341 336 295 292 306 314 287 113 108 117 122 121 119 120 124 124 124 123 123 126 129 129 130 130 126 126 128 129
139 143 167 191 214 257 248 215 219 222 228 235 215 208 244 214 232 130 258 228 20 10 343 321 331 339 0 9 67 50 58 125 106 110 118 104 109 111 117 121 121 121 124 128 130 134 134 132 133 133 133 134 130 132
160 160 170 181 198 226 240 203 216 212 242 170 186 228 182 226 353 301 119 47 37 353 335 346 348 3 27 64 71 65 74 111 119 100 100 105 104 106 110 123 124 124 127 129 133 136 138 145 141 140 148 143 145 147
218 194 206 200 205 204 204 194 197 245 211 244 214 194 101 47 317 266 77 40 1 355 6 7 3 20 36 77 64 42 47 62 113 116 111 117 123 118 91 104 115 122 131 135 138 143 147 150 155 155 158 162 162 156
250 201 209 219 204 207 205 162 187 193 207 200 169 93 125 160 106 48 55 11 357 7 12 32 18 9 14 43 46 53 57 74 81 153 97 105 109 96 98 103 111 114 128 143 149 154 159 161 159 161 166 167 165 164
249 208 218 266 186 215 205 157 166 176 148 146 155 111 168 188 149 81 52 30 17 20 16 53 36 4 11 21 27 48 44 75 113 109 103 110 101 99 101 98 97 88 98 123 134 138 140 147 155 154 159 171 175 166
275 247 244 261 273 291 220 93 124 139 176 163 143 175 192 122 96 86 304 315 8 357 7 140 123 342 14 20 62 54 64 84 105 107 108 110 109 107 111 109 102 95 93 103 114 126 135 143 154 161 165 170 176 176
291 305 339 12 64 47 63 58 46 41 36 36 119 51 73 41 63 314 268 275 273 244 205 175 157 174 42 39 30 52 75 84 90 98 99 96 91 90 95 108 110 115 124 133 115 110 134 161 176 180 181 181 182 186
3 21 29 53 77 60 38 43 45 28 357 267 85 69 89 66 320 317 317 284 241 192 183 180 188 168 112 49 47 65 81 80 111 111 107 102 90 71 74 80 78 79 73 30 231 229 215 175 180 191 190 193 192 192
42 34 58 50 46 48 34 65 73 67 68 79 98 104 83 65 62 78 93 139 172 178 177 182 174 161 151 77 67 67 107 98 85 102 119 110 98 81 75 83 90 108 116 129 128 165 201 159 193 185 187 199 202 205
60 63 70 68 73 88 90 81 88 87 80 79 83 88 86 90 43 62 85 97 102 138 161 164 164 160 156 101 60 92 78 76 101 115 118 104 98 89 86 79 80 76 131 207 215 217 226 214 207 198 202 215 215 210
125 102 108 103 93 104 66 79 83 76 66 62 51 57 62 89 44 20 42 91 107 115 136 144 151 173 179 196 87 94 109 113 136 148 127 132 135 113 98 71 38 25 7 283 252 246 247 236 231 228 221 218 214 214
114 126 118 121 149 164 153 156 117 104 75 56 41 42 40 53 60 12 28 64 86 100 116 136 163 182 170 157 157 146 140 134 145 160 166 172 170 166 110 14 358 6 11 6 345 298 258 241 240 229 208 207 214 214